Wind_Speed
20 20 21 20 20 20 19 19 18 17 15 14 13 12 11 11 11 11 11 11 13 13 13 14 14 14 15 16 18 19 20 21 21 22 22 24 25 27 28 29 30 32 34 36 37 38 39 40 41 42 42 41 42 43 43 43 44 45 46 46 47 48 48 50 50 50 51 51 52 54 56 57 58 60 61 62 63 64 66 67 69 71 73 73 76 80 78
20 20 20 20 19 19 18 18 17 16 15 13 12 11 11 11 10 11 12 12 13 13 14 14 14 15 17 18 19 20 21 21 22 23 24 25 27 28 30 32 33 36 38 39 41 42 42 42 43 44 44 44 44 45 45 45 46 47 48 48 48 49 50 51 52 52 52 53 53 54 57 58 59 61 63 63 63 65 67 68 68 71 74 75 78 81 81
20 20 19 19 18 17 17 16 15 14 13 12 10 9 10 10 10 11 12 12 13 14 14 14 15 16 17 18 20 20 21 21 23 24 26 27 29 30 33 35 36 38 40 41 42 44 45 45 45 46 46 46 46 47 47 47 48 49 49 50 50 51 52 52 53 54 55 56 56 57 58 59 60 61 63 65 65 66 68 68 69 72 75 75 76 80 82
21 20 19 18 18 17 16 15 14 12 11 10 9 8 9 9 10 12 12 13 15 14 14 15 16 17 18 19 20 20 21 23 25 26 27 29 31 33 35 37 38 40 41 42 43 44 45 46 47 48 48 48 48 49 49 49 50 50 51 51 52 53 53 54 54 54 54 56 57 58 60 60 60 61 63 65 66 66 68 69 70 73 76 76 75 79 83
21 21 20 19 18 17 16 14 13 12 10 9 7 7 9 10 11 12 13 14 15 14 15 16 17 17 19 20 20 21 23 25 27 28 29 31 33 35 37 38 39 41 42 43 44 45 46 47 48 49 49 50 50 51 51 51 52 52 53 53 54 55 55 55 55 54 54 56 57 58 59 60 61 61 63 65 66 66 68 70 70 73 77 77 76 78 82
22 22 22 21 20 18 16 14 13 11 10 9 8 8 10 11 11 12 13 14 14 14 16 17 17 18 19 20 21 23 25 26 28 30 31 33 35 36 37 39 40 42 44 45 46 47 47 48 50 51 52 52 53 52 53 54 54 54 55 55 56 56 57 57 57 55 55 57 58 58 60 61 62 63 63 65 67 68 69 69 70 73 77 79 79 80 81
20 21 21 21 20 18 16 14 13 12 11 10 11 11 12 11 11 12 13 13 13 14 16 17 18 19 20 21 24 25 27 28 30 31 32 34 35 37 38 40 41 43 45 46 48 49 50 50 52 53 54 54 55 55 55 56 56 56 57 57 58 59 59 59 59 57 55 57 59 59 61 63 63 63 64 65 68 69 70 70 71 74 77 80 81 82 81
20 20 20 20 20 19 18 17 15 15 14 13 14 13 13 13 12 11 12 12 13 14 16 17 19 20 22 24 26 27 29 30 31 32 33 34 36 37 39 40 42 43 45 47 48 50 52 52 53 54 55 55 56 57 57 57 58 58 59 60 60 61 61 61 62 61 57 58 61 61 63 64 64 64 65 66 68 70 71 71 71 73 77 79 80 81 81
21 21 20 20 20 19 19 18 17 17 15 15 14 14 13 13 12 11 11 12 13 14 16 18 20 21 24 26 27 29 30 31 32 33 34 35 36 38 39 41 42 44 46 48 49 50 52 53 54 55 56 56 57 57 58 59 60 60 61 61 61 63 63 63 64 64 61 60 62 63 63 65 65 65 65 67 68 69 71 73 72 74 79 81 81 82 83
21 21 21 21 20 20 19 18 18 17 15 14 13 13 12 12 10 10 11 12 14 15 16 19 21 23 25 27 28 29 31 32 33 33 34 35 37 38 40 42 43 45 47 48 50 51 52 53 55 56 57 57 58 58 60 60 61 62 63 63 63 64 65 64 65 66 64 62 65 65 65 67 68 66 66 68 69 70 72 72 71 73 78 81 81 82 82
21 20 20 20 20 20 19 19 18 16 15 13 11 11 11 10 10 10 12 13 14 16 17 19 22 24 26 27 28 30 31 32 33 34 35 36 37 39 41 42 44 46 48 50 51 52 53 54 55 57 58 58 59 59 61 62 63 64 64 65 65 65 66 65 66 67 66 65 67 68 67 69 69 67 68 70 71 71 73 73 72 72 76 78 79 80 81
19 18 18 18 18 18 18 18 17 16 15 13 11 9 9 9 10 11 13 14 15 17 18 20 22 24 26 28 29 30 31 33 34 35 35 37 38 39 41 43 45 47 49 50 51 52 54 55 56 58 59 60 60 61 62 63 64 66 66 66 66 66 67 67 67 68 69 68 70 70 69 70 70 69 69 72 72 72 74 74 73 73 77 78 79 81 82
16 15 15 16 16 16 16 16 16 16 15 13 11 9 8 9 10 11 13 15 16 17 18 20 22 24 26 28 29 30 32 33 34 35 36 37 38 40 41 43 45 47 49 50 51 53 54 55 57 58 60 61 62 62 64 65 66 67 67 68 68 67 68 69 69 69 70 71 71 71 71 71 71 71 72 73 73 73 76 77 74 74 78 81 81 83 83
13 12 12 13 13 13 13 14 15 14 14 13 11 10 9 9 10 11 13 15 17 18 19 21 23 25 27 28 30 31 32 33 34 36 36 38 39 40 41 43 45 47 49 50 51 53 54 56 57 59 60 62 63 64 65 66 67 68 69 69 69 68 68 69 70 70 70 72 72 72 73 73 73 73 74 74 74 74 78 81 80 77 80 83 84 85 85
10 10 10 11 11 11 12 12 13 13 13 13 11 11 11 10 11 12 14 15 17 19 20 22 24 25 27 29 30 31 33 34 35 36 37 38 39 40 41 43 45 47 49 50 52 54 55 57 58 60 62 63 64 66 67 68 68 69 70 71 70 70 70 70 71 70 71 73 74 74 75 74 74 74 75 75 75 75 77 81 82 81 82 84 85 85 86
9 9 9 9 10 10 10 11 11 11 12 12 12 12 12 11 12 13 15 16 18 19 21 23 24 26 27 29 30 32 33 34 35 36 37 38 39 40 41 43 46 48 49 51 52 54 56 58 59 61 63 64 66 67 68 69 70 71 72 73 72 72 72 72 71 71 72 73 74 75 75 75 74 74 75 76 76 76 78 81 82 82 84 84 85 86 87
8 8 8 9 9 9 9 9 10 10 10 11 12 12 12 12 13 14 16 17 18 20 21 23 25 26 28 29 31 32 33 35 36 36 37 38 39 40 42 43 46 48 50 51 53 54 56 58 60 62 63 65 67 68 69 70 72 73 73 74 74 74 74 74 73 73 73 74 75 75 75 74 74 75 76 76 76 77 80 82 83 83 85 85 86 88 88
7 8 9 9 9 9 9 9 9 10 10 11 12 12 13 13 14 15 17 18 19 20 22 24 25 26 28 30 31 33 34 35 36 37 37 38 39 40 42 44 46 48 50 52 54 55 57 59 61 63 64 65 67 69 70 71 72 74 75 75 75 76 77 77 76 75 75 74 76 77 75 74 75 77 77 77 77 78 80 83 84 85 86 87 87 88 88
7 8 9 10 10 10 10 9 10 10 11 12 12 13 14 14 15 17 17 18 19 21 23 24 25 27 29 30 31 33 34 35 36 37 38 38 40 41 42 44 46 48 51 53 54 56 57 59 61 63 65 66 68 70 72 72 73 74 76 76 76 77 78 78 78 78 77 76 76 78 77 75 75 77 78 78 79 80 82 83 85 86 87 89 89 89 89
6 7 9 10 10 10 10 10 10 11 11 12 13 14 15 16 17 18 18 18 20 22 23 25 26 27 29 30 32 34 34 35 36 37 38 39 40 41 43 45 47 49 51 53 55 56 58 60 62 64 66 68 69 71 72 74 74 75 77 77 77 78 80 80 79 79 78 77 77 78 78 76 75 77 79 80 81 82 84 86 87 87 88 90 90 90 90
6 6 7 8 9 10 10 10 11 11 12 13 14 15 16 16 17 17 18 19 21 22 24 25 26 28 29 31 32 34 34 35 36 37 38 39 40 42 43 46 48 50 52 54 55 57 59 60 63 65 67 69 71 72 74 75 76 77 78 79 78 79 80 81 80 80 79 77 77 78 77 75 75 77 79 80 81 83 85 87 88 89 89 90 91 91 91
6 6 7 8 9 10 10 11 12 12 13 14 15 15 16 16 16 17 18 20 21 22 23 25 26 28 29 31 33 34 34 35 36 37 38 39 40 42 43 45 47 50 52 54 56 58 60 62 64 65 67 69 71 73 75 76 77 78 79 80 80 80 82 82 81 81 81 79 79 79 77 75 76 78 79 80 81 83 85 87 89 90 90 91 91 92 92
7 7 7 7 8 9 10 11 12 13 14 14 15 15 16 16 17 18 19 20 21 22 23 25 26 28 30 32 33 34 35 35 36 37 38 38 39 41 43 45 47 49 51 54 56 58 60 63 65 66 68 70 72 74 76 77 79 80 81 82 82 82 83 83 82 83 83 81 81 81 79 76 77 79 80 81 83 85 86 89 91 91 92 91 91 92 93
8 8 7 7 8 9 10 11 12 13 14 15 15 16 16 16 17 18 19 19 21 22 24 25 27 29 31 33 34 34 35 35 36 37 37 38 39 41 42 45 47 49 51 53 56 58 61 63 65 67 69 71 73 76 77 79 80 81 81 83 83 83 84 85 84 84 84 84 83 83 80 77 78 81 81 82 85 87 88 91 92 93 93 93 92 93 93
9 9 9 9 9 9 10 11 13 13 14 15 16 16 16 16 17 18 19 20 21 22 24 25 27 30 32 33 33 34 35 35 36 36 37 38 39 41 43 44 46 49 51 54 56 59 61 64 66 68 70 72 74 76 78 80 81 82 82 83 84 85 85 87 87 86 86 86 85 85 82 78 78 81 83 84 87 90 91 92 93 94 95 95 94 94 94
10 10 10 10 10 10 11 12 13 14 14 15 15 16 16 16 17 18 19 20 21 22 24 26 28 30 32 33 33 34 34 35 36 36 36 37 39 40 42 44 46 49 51 54 57 59 62 64 66 68 71 73 75 77 79 81 82 83 84 84 85 86 86 88 89 88 88 87 87 86 85 82 80 82 84 86 89 92 93 95 96 97 97 97 96 95 95
11 11 11 11 10 10 11 12 13 13 14 15 15 16 16 17 17 18 19 20 21 22 24 27 29 31 32 33 33 33 34 35 35 35 36 37 38 40 42 44 46 49 52 54 57 60 62 64 66 68 71 73 75 77 79 81 82 83 84 84 85 86 87 89 90 90 89 89 88 87 88 87 84 85 86 88 91 95 96 97 99 100 99 98 98 97 96
12 12 12 11 11 10 11 11 12 13 14 14 15 16 17 17 17 18 19 20 21 23 25 28 30 32 32 33 33 33 34 34 35 35 36 37 38 40 42 44 47 49 52 55 57 60 62 64 66 68 71 73 75 77 79 80 82 83 84 85 86 87 88 89 91 91 90 89 88 86 87 88 87 87 89 91 93 96 99 100 102 102 101 99 99 98 97
15 14 13 12 11 10 11 11 12 13 13 14 15 16 17 17 17 18 19 20 21 23 26 28 30 32 32 32 33 33 33 34 34 35 36 37 38 40 42 44 47 50 53 55 58 60 62 64 66 68 71 73 75 77 79 81 83 84 85 86 87 88 89 90 91 91 91 90 88 86 86 87 88 89 91 93 96 99 101 103 103 103 101 100 99 98 96
18 16 14 13 11 10 11 12 13 13 14 14 16 16 16 17 17 18 19 20 22 24 27 29 31 32 32 32 33 33 33 33 34 34 35 37 38 40 42 44 47 50 53 56 59 61 62 64 66 68 71 73 75 77 79 81 83 84 85 87 88 89 89 90 90 91 91 91 89 87 86 87 89 90 92 94 97 101 103 104 104 104 102 100 99 97 94
18 16 14 12 11 11 12 13 13 13 14 14 16 16 17 17 17 18 19 20 22 25 28 29 31 32 32 32 33 33 32 33 34 34 36 37 39 40 43 45 48 51 54 56 58 60 62 64 66 69 71 73 76 78 80 81 83 84 85 87 88 89 90 90 90 90 90 91 90 88 87 88 90 92 94 96 99 102 104 105 106 105 103 101 98 96 92
15 14 12 11 11 11 12 13 13 13 14 15 16 16 17 17 17 17 18 20 23 26 28 30 31 32 32 32 33 33 33 33 34 35 36 37 39 41 43 45 48 51 53 56 58 59 62 64 67 69 71 74 76 78 80 81 83 84 86 87 89 90 90 90 90 90 90 91 91 90 90 90 92 94 96 98 101 103 106 107 107 107 104 101 98 95 91
10 10 10 10 10 11 12 13 13 13 14 16 16 17 17 17 17 17 19 21 24 26 28 30 32 32 33 33 33 33 33 34 34 35 36 37 39 41 44 46 48 50 53 55 57 59 62 64 67 69 71 74 76 78 80 81 83 85 86 88 89 90 91 91 91 91 91 92 92 93 93 94 94 96 98 100 102 105 107 109 109 108 105 101 98 94 91
6 8 9 9 10 12 12 13 13 14 15 16 17 17 17 17 17 18 19 22 24 26 28 30 31 32 33 34 33 33 33 34 34 35 36 37 39 41 44 47 49 50 52 54 56 59 62 65 67 69 72 74 76 78 80 82 83 85 87 88 89 90 91 92 92 91 91 92 92 93 94 95 96 97 99 102 105 108 110 110 110 109 105 101 98 94 91
5 6 8 9 11 12 12 12 13 15 16 17 17 17 16 16 17 18 20 22 25 27 29 30 31 32 32 33 32 33 33 34 35 36 36 37 39 42 44 47 49 50 52 54 56 59 62 65 67 69 72 74 76 78 80 82 84 85 87 88 90 91 92 92 92 92 92 92 93 93 94 95 97 100 102 104 107 110 111 111 110 108 105 101 97 93 91
6 7 8 10 11 11 12 13 14 15 16 17 17 16 16 16 17 18 20 23 26 28 29 31 32 33 32 32 32 33 34 34 35 36 36 38 40 42 45 47 49 50 52 54 57 60 62 65 67 70 73 75 77 79 81 83 84 86 87 89 90 91 92 93 94 94 93 93 93 94 95 96 98 100 102 105 108 111 112 112 111 108 105 102 98 94 91
7 8 9 10 11 12 12 13 15 16 17 17 16 15 15 16 17 18 21 23 26 28 30 32 33 34 34 33 33 33 34 34 35 36 37 38 40 42 45 48 49 51 53 55 57 60 62 65 67 71 73 76 78 80 81 83 84 86 88 89 91 92 93 94 95 95 94 94 94 94 95 96 98 100 103 106 109 112 113 113 111 109 106 102 98 95 92
9 9 10 11 12 13 14 15 16 17 17 16 15 15 15 16 17 19 22 24 27 29 31 33 34 34 34 33 32 33 34 35 36 36 37 39 40 42 45 48 50 51 53 54 57 60 62 65 68 71 75 77 79 80 82 83 85 86 88 90 91 93 94 95 96 96 96 96 96 97 98 99 101 103 105 108 111 114 114 113 111 108 105 101 98 95 92
12 12 12 13 14 15 15 16 17 17 16 15 14 15 15 16 18 20 22 25 27 29 31 32 33 33 32 32 32 33 34 35 36 37 37 39 41 43 46 49 51 52 53 55 57 60 62 65 69 72 75 77 79 81 82 83 85 86 88 90 92 94 95 96 97 97 97 98 98 99 99 101 103 105 108 110 113 114 115 114 111 108 105 101 97 95 92
14 14 14 15 16 16 16 17 17 17 15 14 14 14 15 17 18 21 23 25 28 29 31 32 32 32 32 32 32 33 34 36 37 38 38 39 41 44 47 49 51 52 53 55 58 60 63 66 70 73 76 78 80 81 83 84 85 87 88 90 92 94 95 96 97 97 97 97 97 98 98 100 102 105 108 111 113 114 115 114 111 108 105 101 97 95 93
14 14 15 16 17 17 17 18 17 15 14 14 14 14 16 17 19 21 23 26 28 29 31 31 31 31 31 32 33 34 35 36 37 38 39 39 41 44 48 50 52 53 54 56 59 61 64 67 71 73 76 79 80 82 83 84 85 86 88 90 92 94 95 96 97 97 97 97 97 98 98 99 102 105 109 111 113 114 115 114 112 108 104 101 97 95 94
13 14 15 16 17 17 17 17 15 14 14 13 14 15 16 17 19 21 24 26 28 29 31 32 31 31 32 33 34 35 37 37 38 38 39 40 42 45 48 51 52 54 55 57 59 62 65 68 71 73 76 78 80 82 83 84 85 86 87 89 92 94 96 97 97 97 97 98 98 98 99 100 102 105 109 111 113 114 115 114 111 108 104 100 97 95 94
13 13 14 15 16 16 16 15 14 13 13 13 14 15 16 18 20 22 24 26 28 30 31 32 32 32 33 34 35 36 38 38 39 39 39 41 43 46 49 51 53 54 56 57 60 63 66 69 71 74 76 79 81 82 83 84 85 86 87 89 92 94 96 97 97 97 98 98 99 98 99 100 102 105 108 111 113 114 114 114 111 108 104 100 97 95 94
13 13 14 14 15 15 15 14 13 13 13 13 14 15 17 18 20 22 25 27 29 30 31 31 32 32 33 34 36 37 38 39 39 39 40 41 43 46 49 52 53 54 56 58 61 64 67 69 72 74 77 79 81 82 83 83 84 85 87 89 91 94 96 97 97 98 98 98 98 98 99 100 103 105 107 110 113 115 115 114 111 108 104 100 97 94 93
13 12 13 14 14 14 14 13 12 13 13 13 14 15 17 19 21 23 25 27 29 30 31 31 32 33 34 36 37 38 39 39 39 39 40 41 44 46 49 51 53 55 57 59 62 64 67 70 72 75 77 79 81 82 83 84 84 85 87 89 91 93 95 97 98 98 99 99 99 99 99 101 103 105 107 110 113 115 115 114 112 109 105 101 97 94 93
12 12 12 13 13 13 13 12 12 12 13 14 15 16 17 19 21 23 26 27 29 30 31 32 32 33 35 37 38 39 39 39 39 39 40 42 44 47 49 51 53 55 58 60 63 65 67 70 72 75 77 79 81 83 84 84 84 85 87 88 90 93 96 97 99 99 99 99 99 99 100 101 104 105 107 110 113 115 115 114 112 109 105 101 97 94 93
11 11 12 12 12 12 12 12 12 12 13 14 16 17 18 20 22 24 26 27 29 30 31 32 33 34 36 37 38 39 39 39 39 39 41 42 45 47 50 52 54 56 59 61 63 65 68 70 73 75 77 80 82 84 84 84 85 85 87 88 90 93 96 97 99 99 99 99 99 99 100 101 103 105 108 111 113 115 115 114 112 109 105 101 97 95 92
10 10 11 11 11 11 11 12 12 13 14 15 16 17 19 20 22 24 26 27 29 30 31 32 33 35 37 38 38 38 38 39 39 40 41 43 46 48 50 52 54 57 59 61 64 66 68 71 74 76 78 81 83 84 85 85 85 85 86 88 90 93 95 97 99 100 100 99 99 99 100 101 103 105 108 110 113 115 115 114 111 108 105 101 97 94 92
10 10 11 11 11 11 11 12 13 14 15 16 17 18 19 21 23 25 26 28 29 30 31 33 34 36 37 38 37 37 37 38 39 41 42 44 46 48 51 53 55 57 59 62 64 66 69 72 75 77 80 82 83 84 85 86 86 86 87 88 90 93 95 97 99 100 100 100 100 99 100 102 103 105 107 110 113 115 115 114 112 108 105 101 97 94 92
9 10 10 11 11 11 12 12 13 14 15 17 18 19 20 21 23 25 26 28 29 30 32 33 35 36 37 37 37 37 37 38 40 42 43 45 47 48 51 53 56 58 60 62 64 67 70 73 75 78 80 82 83 84 86 86 86 86 87 88 90 93 95 97 99 100 100 100 100 100 100 102 103 105 107 110 112 114 115 114 112 108 104 100 96 94 92
9 10 10 11 11 12 12 13 14 15 16 17 19 20 21 22 24 25 27 28 30 31 33 34 36 37 37 37 38 38 38 39 41 43 44 45 47 49 51 53 56 58 61 63 65 68 70 73 76 79 81 82 83 85 86 87 87 87 88 89 90 92 95 97 99 100 100 100 100 100 100 101 103 105 107 109 112 113 114 113 111 108 104 99 96 93 91
10 10 10 11 11 12 13 14 15 16 17 18 20 21 22 23 24 26 28 29 30 32 34 35 36 37 38 38 39 39 40 40 42 43 44 46 47 49 51 53 56 58 61 63 66 68 71 74 77 79 81 82 83 85 86 87 88 88 88 89 90 92 94 97 98 100 100 100 100 99 100 101 103 104 106 108 110 112 113 113 112 109 105 101 97 93 91
Wind_Direction
88 88 89 89 90 94 98 101 100 98 97 94 91 88 83 76 67 57 47 36 27 21 20 25 27 25 22 20 19 17 15 14 14 15 16 16 17 16 15 15 14 12 12 10 9 8 6 5 3 1 0 359 357 355 354 353 351 349 348 346 343 342 342 342 342 341 339 338 336 334 334 335 335 334 332 331 329 327 326 327 327 326 325 325 324 324 329
89 90 90 91 90 92 97 100 102 101 98 93 87 81 76 68 58 47 37 29 25 27 30 32 30 26 21 20 21 20 19 19 20 21 22 21 20 19 18 17 15 14 12 11 9 7 6 5 4 2 1 359 358 356 355 353 352 350 349 347 345 343 342 341 341 341 340 339 338 336 335 336 334 333 332 331 330 328 327 327 326 326 326 326 326 325 327
89 90 91 91 90 91 94 98 101 101 98 93 84 74 65 56 47 39 34 32 34 37 36 32 28 25 21 22 24 22 22 24 25 24 24 23 21 19 18 17 15 14 12 11 10 7 6 5 4 3 1 360 359 357 355 354 353 352 350 348 346 345 343 341 341 340 338 338 338 336 335 336 335 333 331 331 331 329 327 326 327 327 326 326 326 324 325
88 89 89 88 88 88 90 94 98 98 96 91 81 67 56 48 44 41 38 40 41 39 36 31 27 24 23 24 24 23 24 26 26 25 23 22 21 19 18 16 15 14 13 11 10 8 6 5 4 3 2 0 359 357 356 355 353 352 351 349 347 346 345 343 342 341 338 337 338 336 335 336 335 333 332 332 332 329 326 328 329 327 325 326 326 324 325
89 89 87 86 85 85 88 92 94 95 92 85 77 68 59 51 47 46 46 46 44 38 32 29 25 23 24 24 24 24 25 25 25 24 23 22 20 18 17 16 14 13 12 11 10 9 7 5 4 4 2 1 360 358 356 356 354 353 352 350 348 347 346 344 343 343 339 337 338 337 335 335 335 334 333 333 332 330 328 329 329 327 324 325 327 326 326
91 91 89 86 84 83 84 87 90 92 91 86 84 80 69 59 54 56 54 48 42 35 30 28 25 24 24 23 24 25 25 24 23 22 21 21 19 17 16 15 13 12 11 10 9 8 8 6 4 4 2 1 360 358 357 355 354 353 352 351 349 348 347 345 345 345 341 338 339 337 335 336 336 335 334 333 332 332 331 330 329 327 325 326 327 328 329
91 91 90 87 85 82 80 81 85 90 93 89 85 80 73 65 59 61 59 48 38 33 30 28 26 25 23 23 24 23 23 23 22 20 20 19 18 16 15 14 12 11 10 9 8 7 6 6 4 3 2 1 359 358 357 355 354 353 352 351 349 348 348 346 345 347 344 339 339 339 337 337 338 337 335 334 334 333 331 330 330 329 327 327 328 329 330
89 88 88 86 84 81 79 78 80 84 86 84 80 76 71 65 56 53 52 44 36 32 30 28 25 23 22 22 22 21 20 20 19 18 18 17 16 15 13 12 11 10 9 8 8 7 5 5 4 3 2 1 359 358 357 355 354 353 352 352 350 348 349 347 345 348 346 341 340 341 338 338 339 337 336 335 335 334 332 331 332 330 328 328 329 329 329
87 85 83 81 79 78 77 76 75 75 75 75 74 72 69 64 55 45 40 38 36 33 30 27 24 22 21 21 20 19 18 17 17 17 16 15 14 13 12 11 9 9 9 8 7 6 5 5 3 2 1 1 359 358 357 355 354 354 352 352 351 349 349 348 346 347 348 342 341 342 339 339 340 339 337 336 335 335 333 333 334 332 328 329 330 329 330
86 83 80 77 75 73 72 72 71 70 67 65 65 68 67 63 56 44 35 34 34 31 28 25 23 21 19 19 18 17 16 15 14 14 14 13 12 11 10 9 8 8 8 7 6 6 5 4 3 2 1 0 359 358 357 356 354 354 353 352 352 350 349 348 346 346 347 344 342 342 340 339 341 341 338 337 336 336 335 334 335 333 329 329 330 330 330
84 82 79 76 74 71 69 68 67 67 65 60 57 61 63 57 49 41 33 31 29 26 25 23 21 20 18 17 16 15 14 13 13 12 12 11 10 9 8 7 7 6 6 5 5 5 5 4 2 1 360 360 359 357 356 355 353 353 353 352 352 350 349 349 346 346 347 345 343 344 342 340 342 341 339 337 337 337 335 336 336 333 329 329 329 329 330
83 82 80 77 74 72 70 67 66 65 64 60 53 52 55 49 39 33 28 27 25 23 21 20 19 18 16 14 13 13 12 12 11 11 10 9 9 8 7 6 6 6 5 4 4 4 3 2 1 0 359 358 358 357 355 355 353 352 352 352 351 350 349 349 347 346 346 345 344 344 343 342 342 341 339 339 339 337 336 337 337 333 329 330 330 330 331
81 80 79 77 74 70 68 65 63 60 58 57 50 44 44 40 32 26 22 22 21 20 19 19 18 15 13 12 11 11 10 10 10 10 9 8 7 7 6 5 5 5 4 3 3 2 2 1 359 358 357 355 355 355 354 354 353 352 352 352 351 350 349 349 348 346 346 345 345 345 343 342 342 342 341 340 340 338 335 337 339 335 331 331 332 332 333
78 76 73 71 68 64 61 58 55 53 50 47 42 37 35 32 29 25 20 18 17 16 16 17 15 13 11 10 10 9 9 9 9 9 8 7 6 5 5 5 4 3 3 2 2 1 0 359 357 356 355 354 353 353 354 354 354 353 352 352 352 350 349 349 348 347 346 345 346 345 344 343 343 342 342 341 340 338 335 336 339 337 333 333 333 334 334
70 66 63 59 56 52 49 46 45 42 40 36 32 30 27 22 22 22 19 15 13 13 14 14 13 11 9 9 8 8 8 8 8 8 7 5 5 4 4 3 3 2 2 2 1 0 359 358 357 356 355 354 354 354 354 354 354 353 352 352 352 350 350 349 348 347 346 345 346 346 345 345 344 343 342 341 340 338 335 336 338 338 335 334 334 333 333
56 52 47 44 42 39 35 33 31 29 28 25 23 22 18 12 15 18 15 11 10 10 12 12 11 9 8 8 7 6 6 7 7 6 5 4 4 3 3 3 2 1 1 1 1 360 358 358 357 357 356 355 355 355 355 354 353 353 353 352 352 351 350 350 349 348 346 346 346 346 345 345 344 343 343 342 340 338 336 337 339 338 336 335 334 334 334
40 36 32 27 26 24 20 19 18 16 15 14 13 12 8 5 9 12 9 8 8 8 9 10 8 7 6 6 6 5 5 6 5 4 4 3 2 2 2 2 2 1 0 1 0 359 358 357 356 356 356 356 355 355 356 355 353 352 353 353 351 350 350 350 350 349 348 347 347 347 346 345 344 342 343 343 341 339 337 338 339 338 337 335 334 335 335
28 27 25 21 18 15 11 8 6 5 4 4 3 2 360 0 4 6 4 3 4 5 7 8 6 6 6 4 4 4 4 4 4 3 2 1 1 1 1 1 1 0 0 360 359 359 358 357 356 356 356 356 355 355 355 355 353 352 353 353 352 350 350 350 350 350 349 347 347 348 348 346 344 343 343 343 342 341 340 339 339 338 337 336 335 335 336
17 18 19 18 15 12 7 2 358 357 356 355 355 354 355 357 1 2 0 359 1 4 6 5 4 4 4 3 2 3 3 3 2 1 0 0 360 360 360 0 0 360 359 359 358 358 357 357 356 355 355 355 355 354 355 355 354 353 352 353 352 350 350 351 350 350 350 348 348 349 349 348 346 344 343 342 341 341 341 341 340 338 337 337 336 336 336
359 5 10 11 10 8 5 359 354 353 352 351 351 351 353 356 357 357 355 356 360 3 4 3 3 3 2 1 1 2 2 1 1 360 359 359 359 359 359 359 359 359 358 358 357 357 357 357 357 356 355 355 354 354 354 354 353 352 352 352 352 350 350 351 351 350 350 349 348 349 350 348 346 344 343 343 342 341 341 341 341 339 337 337 338 338 336
340 347 358 2 4 5 3 358 355 353 351 350 349 349 351 353 353 352 353 356 360 2 1 1 1 1 0 360 0 1 1 360 359 359 358 359 359 359 359 359 358 358 358 357 357 357 357 357 357 356 355 354 353 353 353 353 353 352 352 352 352 351 350 351 351 350 351 350 349 349 350 348 345 344 344 344 343 343 342 341 340 339 338 338 338 338 337
335 336 347 354 357 1 0 357 355 354 352 349 347 346 348 349 349 351 354 356 358 359 359 360 0 359 358 358 359 0 359 359 358 358 358 358 358 359 359 359 358 358 358 357 357 357 356 356 356 355 354 354 353 353 353 353 352 352 351 351 352 352 350 351 351 351 351 350 349 350 351 349 346 345 345 344 344 344 343 342 340 340 339 338 338 339 337
337 332 338 343 348 353 354 351 352 352 350 347 344 344 344 347 349 352 353 355 356 357 358 359 358 357 357 358 358 359 358 358 358 358 357 358 359 359 359 359 358 358 357 357 357 356 356 355 355 355 354 354 353 353 352 352 352 352 351 351 352 352 350 350 351 351 351 350 350 350 351 349 347 346 346 345 345 345 344 343 342 341 340 339 339 338 338
335 331 331 333 336 340 341 342 345 346 345 343 342 342 344 347 349 350 351 353 355 356 357 357 357 356 356 357 357 357 357 357 357 357 357 357 358 359 359 358 358 357 357 357 356 355 355 354 354 354 354 354 353 352 352 352 352 352 352 351 351 351 350 350 351 351 350 351 350 350 351 350 347 347 347 346 346 346 345 344 343 342 341 341 339 339 339
330 327 326 325 326 329 331 333 336 339 340 340 341 342 345 347 347 348 350 352 354 355 356 356 356 356 355 355 355 356 356 356 356 356 356 357 358 358 358 357 357 356 356 356 356 355 354 354 353 353 353 353 352 352 352 352 351 351 351 351 351 351 350 350 350 351 350 350 350 350 351 351 348 347 347 347 346 347 347 345 343 342 342 341 341 340 339
324 321 320 320 319 319 321 325 328 333 336 337 340 342 344 345 345 346 349 351 352 354 354 354 355 355 354 354 354 355 355 355 355 355 356 356 357 357 357 356 356 356 356 356 355 354 354 353 353 352 352 352 352 352 352 351 351 351 351 351 351 351 350 350 350 350 350 350 350 350 350 351 350 349 348 348 347 347 347 346 344 343 343 342 342 341 341
319 315 313 314 314 313 314 317 322 328 332 335 339 341 342 343 344 344 346 349 350 352 353 354 354 353 353 352 353 354 354 353 354 354 355 355 356 356 356 356 355 355 356 355 355 354 353 353 352 352 352 352 351 351 351 351 351 351 351 351 350 350 351 350 350 350 350 350 350 350 350 351 351 350 349 349 348 348 348 346 345 344 344 343 342 342 342
311 308 305 305 307 308 310 313 319 325 329 333 337 340 341 342 341 341 344 347 349 351 353 353 352 351 351 352 352 353 353 353 353 353 354 354 355 354 355 355 355 355 355 355 354 353 352 352 351 351 351 351 351 350 350 350 350 350 350 350 350 351 351 351 350 351 350 350 351 350 350 350 351 351 350 349 349 348 348 347 346 345 345 344 343 343 344
304 302 298 296 298 303 307 310 316 321 325 331 336 338 338 338 337 338 342 345 348 351 352 351 350 350 350 351 351 352 353 352 352 353 353 353 353 354 354 354 354 354 354 354 353 353 352 351 351 351 351 351 350 350 349 349 350 350 350 350 351 351 351 351 350 350 350 350 350 351 350 350 351 351 350 350 349 349 349 348 347 346 345 345 344 344 345
297 295 291 290 292 299 306 310 315 320 324 329 333 334 334 335 336 337 341 344 348 350 350 349 349 349 350 351 350 351 352 351 351 352 352 352 353 353 353 353 354 354 354 354 353 352 352 351 350 350 351 350 350 349 349 349 350 350 350 350 350 351 351 351 351 350 350 350 351 351 351 350 350 351 351 350 349 349 349 349 348 347 346 346 346 346 346
289 285 282 281 284 293 302 307 312 317 320 323 327 329 330 333 335 336 339 343 347 348 348 348 348 348 349 350 349 349 350 351 351 351 351 351 352 352 352 353 354 354 354 354 353 352 351 350 350 350 350 350 349 349 349 349 349 350 350 350 350 351 351 351 351 350 349 349 350 351 351 350 350 351 351 351 350 350 350 349 349 348 347 347 347 347 347
279 274 270 270 276 287 297 304 309 312 315 320 324 327 328 331 333 335 339 343 346 347 346 347 347 348 348 349 348 349 350 351 351 351 351 350 351 352 352 353 354 354 354 353 352 351 351 350 349 349 350 350 349 349 349 349 349 349 350 350 350 351 351 351 351 350 349 349 349 350 351 350 350 351 352 352 351 351 350 350 350 349 348 348 348 348 348
265 261 260 264 274 287 298 305 309 311 315 319 323 325 326 329 331 334 339 343 345 345 345 346 347 348 347 347 348 348 349 350 350 350 350 350 351 352 353 353 354 354 354 353 352 351 350 350 349 349 349 349 349 349 349 348 349 349 350 350 351 351 351 351 351 350 350 349 350 350 351 351 351 352 352 352 352 351 351 351 350 350 349 349 349 349 349
251 252 257 266 279 291 300 305 307 310 315 319 322 323 326 328 330 334 339 342 343 344 344 345 346 347 347 347 347 347 349 349 349 349 349 350 351 352 352 353 353 353 353 353 351 350 350 350 349 349 349 349 349 348 348 348 349 349 350 350 351 351 351 351 351 350 350 350 350 350 351 351 351 352 352 352 352 352 352 352 351 350 350 350 350 350 350
263 260 267 276 286 295 302 305 307 310 315 318 320 322 325 327 329 334 339 340 341 342 344 345 346 346 346 346 346 346 347 348 349 349 349 349 350 351 352 352 352 352 352 352 351 350 350 350 349 349 349 349 349 349 348 349 349 349 350 350 351 351 351 351 351 351 350 350 350 351 351 351 351 352 353 353 353 353 353 352 352 351 350 350 350 351 351
288 280 281 285 292 298 303 306 308 312 315 318 320 322 324 325 328 333 337 338 339 341 343 344 345 345 346 346 346 346 347 348 348 348 348 348 349 351 351 351 351 351 352 351 350 350 351 350 349 349 349 349 349 349 349 349 349 350 350 350 350 351 350 350 351 351 351 350 350 351 351 351 351 352 353 353 353 353 353 353 352 351 351 351 351 352 352
300 293 291 293 296 301 305 307 310 313 316 318 320 322 323 325 328 333 336 337 338 340 342 343 344 345 345 346 346 345 345 347 348 348 347 347 348 350 350 350 350 351 351 351 350 350 350 350 349 349 349 349 349 349 349 349 349 350 350 350 350 350 350 350 350 350 350 350 350 350 351 351 352 352 353 354 354 354 354 354 353 352 352 352 352 352 353
302 300 298 298 300 303 307 309 311 314 317 318 320 321 323 325 328 332 335 336 338 340 341 343 344 344 344 345 345 344 345 346 347 347 346 346 346 348 349 349 349 350 350 350 350 350 350 350 350 349 349 349 349 349 349 349 349 350 350 350 350 351 351 351 350 350 350 350 350 351 352 352 352 353 354 355 355 355 354 354 354 353 353 352 352 352 353
298 299 299 299 302 304 307 309 311 313 315 317 319 320 321 324 328 331 334 336 338 340 341 342 343 343 343 343 343 344 345 346 346 346 345 345 345 346 347 348 348 349 350 349 350 350 350 350 350 349 348 348 349 349 349 349 349 350 350 350 351 351 351 351 351 351 350 350 351 351 352 352 353 353 354 356 356 355 354 354 354 354 353 353 353 353 353
296 297 297 298 301 303 305 307 310 312 314 316 318 318 320 323 327 330 333 335 338 339 341 342 342 342 342 342 343 344 345 345 345 345 344 344 344 345 346 347 348 349 349 349 349 350 350 350 349 349 348 348 349 349 350 350 350 350 350 350 351 351 351 351 351 351 351 351 351 352 352 353 353 353 354 356 356 355 355 355 355 354 354 354 353 353 354
296 295 295 296 299 301 303 306 309 312 313 314 316 317 319 322 326 329 332 335 337 339 340 340 341 341 341 342 343 343 344 345 345 344 343 343 344 344 345 346 347 348 349 349 349 350 350 349 349 349 348 348 349 349 350 350 350 350 350 350 351 351 351 352 351 351 351 351 351 352 352 352 353 354 355 356 356 355 355 355 355 355 354 354 354 354 354
296 294 294 296 298 300 303 305 308 310 311 313 315 317 319 321 325 329 331 333 336 338 339 340 341 342 343 343 343 343 344 344 345 343 342 342 343 344 345 345 346 347 348 349 349 349 349 349 349 349 348 348 348 349 350 350 349 349 350 350 351 351 352 352 352 351 351 351 351 352 352 352 353 354 355 356 356 355 355 355 355 355 355 355 354 354 355
296 293 293 296 298 300 302 304 306 308 310 312 314 315 317 321 325 328 330 332 335 338 339 340 341 343 344 343 343 343 343 344 344 343 342 342 342 343 343 344 346 347 348 348 348 349 349 349 349 349 349 348 349 349 350 350 349 349 350 351 351 352 352 352 352 351 351 351 351 352 352 352 353 355 355 355 355 355 355 356 356 356 356 355 355 355 355
295 293 293 295 297 299 301 303 305 306 309 311 313 314 317 321 324 327 330 333 336 338 339 341 343 344 344 344 343 343 343 343 343 342 341 341 342 342 342 344 345 347 347 348 348 349 349 348 349 349 349 349 349 349 350 349 349 349 350 351 351 352 352 352 352 351 351 351 351 351 351 352 353 355 355 355 355 355 356 356 356 356 356 356 356 356 355
293 293 292 294 296 298 299 302 303 305 308 311 312 313 316 319 323 326 330 334 336 338 340 342 343 344 344 343 343 342 342 342 342 342 341 341 341 341 342 344 345 346 347 348 348 349 349 349 349 349 349 349 349 350 350 350 349 349 350 351 351 352 352 352 351 351 351 351 351 351 351 352 354 355 355 355 355 356 356 356 356 357 357 357 357 357 356
291 292 292 293 296 298 299 300 302 304 306 308 309 311 314 319 324 327 331 334 337 338 340 342 343 343 343 342 341 341 341 341 341 341 341 340 340 341 342 343 345 346 347 348 349 349 349 349 349 350 350 350 350 350 350 350 349 349 350 351 351 351 351 352 352 351 351 351 351 351 351 352 354 355 355 355 355 356 356 356 357 357 357 357 357 357 357
291 292 292 293 295 296 297 298 300 301 303 305 307 311 317 321 325 329 332 335 337 339 341 342 342 342 342 341 340 340 340 341 340 340 340 339 340 340 341 343 345 347 347 348 349 349 349 349 349 350 350 350 350 350 350 350 349 349 350 350 351 351 351 352 351 351 351 351 351 351 351 352 354 355 355 355 356 356 356 356 357 358 358 358 357 357 357
291 291 291 291 292 292 293 295 297 299 302 305 309 314 319 323 326 330 333 335 337 338 340 341 341 341 341 340 340 340 340 339 339 339 339 339 339 340 342 343 345 346 347 348 348 349 349 349 349 350 350 350 350 350 350 350 350 349 349 350 350 351 351 351 351 351 351 351 351 351 351 352 354 355 355 355 356 356 356 357 357 358 358 358 357 357 357
292 291 289 288 288 289 291 294 297 299 303 307 311 316 321 324 327 330 332 334 336 337 339 340 340 340 340 339 339 339 339 338 338 338 338 339 339 340 342 343 344 346 346 347 348 348 349 349 349 350 350 350 350 349 350 350 349 349 349 350 350 351 351 351 351 351 351 351 351 351 351 352 354 355 355 355 356 356 357 357 358 358 358 358 358 357 357
291 289 287 286 287 290 293 295 298 301 304 308 312 318 323 326 328 329 331 333 334 336 337 339 339 339 339 338 338 338 338 338 337 337 338 338 339 341 342 343 344 345 346 346 347 348 348 349 349 349 349 349 349 349 349 349 349 349 349 349 350 351 351 351 351 351 351 351 351 351 351 352 353 354 355 356 356 357 357 357 357 358 358 358 358 358 358
293 289 287 286 289 292 294 297 300 303 306 310 314 319 323 326 327 328 330 332 333 334 336 337 338 339 338 337 337 337 338 337 337 337 337 338 339 341 342 343 343 344 345 345 346 347 348 348 348 348 349 348 348 349 349 349 349 349 349 349 350 350 351 351 351 351 351 351 351 351 351 352 353 354 355 356 357 357 357 357 357 358 358 358 358 358 359
296 294 292 291 293 295 297 299 302 305 308 312 316 320 323 325 326 327 329 330 332 334 335 337 338 338 338 337 337 337 337 337 336 337 337 338 339 340 341 342 342 343 343 344 345 346 347 347 347 347 348 348 348 348 349 349 349 349 349 349 350 350 350 351 351 351 351 351 350 350 351 352 353 354 354 355 356 357 357 357 358 358 358 359 359 359 359
Height
5819 5819 5820 5821 5821 5822 5823 5823 5824 5825 5825 5826 5826 5827 5827 5827 5827 5826 5826 5825 5825 5824 5823 5822 5821 5820 5819 5818 5817 5815 5814 5812 5810 5809 5806 5804 5802 5799 5796 5794 5791 5788 5785 5782 5779 5776 5772 5769 5765 5761 5757 5753 5749 5745 5741 5737 5732 5728 5723 5719 5714 5709 5705 5700 5696 5692 5686 5680 5675 5669 5663 5658 5653 5647 5640 5633 5627 5619 5611 5604 5597 5590 5582 5575 5567 5557 5555
5821 5821 5822 5822 5823 5824 5824 5825 5825 5826 5827 5827 5828 5828 5828 5828 5827 5827 5827 5826 5825 5825 5824 5823 5822 5821 5820 5819 5817 5816 5814 5813 5810 5808 5806 5803 5801 5799 5796 5793 5790 5787 5785 5781 5778 5774 5771 5768 5764 5760 5756 5752 5748 5744 5739 5735 5731 5726 5721 5716 5711 5706 5701 5696 5691 5688 5683 5679 5674 5667 5661 5654 5647 5640 5633 5627 5621 5613 5606 5601 5594 5586 5578 5569 5559 5548 5546
5823 5823 5824 5824 5825 5825 5826 5826 5827 5828 5828 5828 5829 5829 5829 5829 5828 5828 5827 5827 5826 5825 5824 5824 5823 5822 5821 5819 5818 5816 5815 5812 5810 5808 5805 5803 5801 5798 5795 5793 5790 5787 5784 5781 5777 5773 5769 5766 5762 5759 5754 5750 5746 5742 5738 5733 5729 5724 5719 5714 5709 5703 5698 5692 5686 5680 5674 5669 5665 5658 5652 5648 5641 5635 5627 5622 5617 5609 5602 5596 5589 5580 5572 5567 5558 5544 5539
5825 5826 5826 5826 5827 5827 5828 5828 5829 5829 5829 5830 5830 5830 5830 5829 5829 5828 5828 5827 5826 5826 5825 5824 5824 5823 5821 5820 5818 5816 5815 5812 5810 5807 5805 5803 5800 5798 5795 5792 5789 5786 5783 5780 5777 5773 5769 5765 5761 5757 5753 5749 5745 5740 5736 5731 5726 5722 5717 5711 5706 5701 5695 5689 5684 5678 5671 5664 5660 5654 5647 5642 5638 5632 5625 5618 5613 5606 5598 5591 5584 5574 5565 5562 5558 5542 5530
5828 5828 5828 5829 5829 5829 5829 5830 5830 5830 5830 5831 5831 5831 5830 5830 5829 5829 5828 5828 5827 5827 5826 5825 5825 5823 5822 5820 5818 5816 5814 5812 5810 5807 5805 5802 5800 5797 5795 5792 5789 5786 5783 5779 5776 5772 5768 5764 5760 5756 5751 5747 5743 5738 5734 5729 5724 5719 5714 5709 5704 5698 5693 5687 5682 5677 5670 5663 5658 5652 5645 5640 5635 5630 5624 5616 5609 5603 5594 5586 5580 5571 5559 5553 5552 5542 5527
5830 5830 5830 5831 5831 5831 5831 5831 5831 5831 5831 5831 5831 5831 5831 5831 5830 5830 5829 5829 5828 5828 5827 5826 5825 5824 5822 5820 5818 5816 5814 5812 5809 5807 5805 5802 5800 5797 5794 5791 5788 5785 5782 5778 5775 5771 5767 5763 5758 5754 5750 5745 5741 5737 5732 5727 5722 5717 5712 5707 5701 5696 5691 5685 5679 5675 5668 5661 5655 5650 5644 5639 5634 5627 5620 5612 5605 5598 5592 5584 5576 5567 5555 5545 5540 5534 5523
5833 5833 5832 5832 5832 5832 5833 5832 5832 5832 5832 5832 5832 5832 5832 5831 5831 5831 5830 5830 5829 5829 5828 5827 5826 5824 5823 5820 5818 5816 5814 5811 5809 5807 5804 5802 5799 5796 5793 5790 5787 5784 5781 5777 5773 5769 5766 5762 5758 5753 5749 5744 5739 5735 5730 5725 5720 5715 5710 5704 5698 5693 5688 5681 5676 5673 5667 5659 5653 5648 5641 5636 5630 5623 5616 5609 5601 5593 5585 5580 5572 5561 5549 5539 5530 5524 5518
5835 5835 5835 5834 5834 5834 5834 5834 5834 5834 5833 5833 5833 5833 5832 5832 5832 5832 5831 5831 5830 5830 5829 5827 5826 5824 5822 5820 5818 5816 5813 5811 5809 5806 5804 5801 5799 5796 5793 5790 5786 5783 5780 5776 5772 5768 5764 5760 5756 5752 5747 5742 5737 5733 5728 5723 5718 5712 5707 5702 5696 5689 5684 5678 5672 5669 5665 5657 5650 5644 5636 5629 5624 5619 5612 5605 5597 5589 5579 5572 5566 5556 5545 5537 5527 5518 5511
5837 5837 5837 5836 5836 5836 5836 5835 5835 5835 5835 5835 5834 5834 5834 5833 5833 5833 5833 5832 5831 5830 5829 5828 5826 5824 5822 5820 5818 5815 5813 5811 5809 5806 5803 5801 5798 5795 5792 5789 5785 5782 5779 5775 5771 5767 5763 5758 5754 5750 5745 5741 5736 5730 5725 5720 5714 5709 5704 5698 5692 5686 5680 5675 5667 5663 5660 5653 5645 5640 5634 5627 5623 5616 5609 5600 5593 5585 5575 5566 5559 5548 5535 5527 5521 5512 5503
5839 5839 5839 5838 5838 5838 5837 5837 5837 5836 5836 5836 5836 5835 5835 5835 5835 5834 5834 5833 5832 5830 5829 5827 5826 5824 5822 5820 5818 5815 5813 5811 5808 5806 5803 5800 5797 5794 5791 5788 5785 5781 5778 5774 5770 5766 5762 5757 5753 5748 5743 5739 5734 5728 5723 5718 5712 5707 5701 5695 5689 5682 5676 5670 5663 5657 5654 5648 5640 5634 5627 5621 5616 5609 5601 5593 5586 5579 5571 5563 5558 5547 5532 5521 5514 5506 5498
5841 5841 5840 5840 5840 5840 5839 5839 5838 5838 5838 5838 5837 5837 5836 5836 5836 5835 5834 5833 5832 5830 5829 5827 5825 5823 5822 5820 5818 5815 5813 5811 5808 5805 5802 5799 5796 5793 5790 5787 5784 5780 5776 5773 5769 5765 5761 5756 5751 5747 5742 5737 5732 5727 5721 5716 5709 5704 5698 5692 5686 5679 5672 5666 5659 5652 5648 5643 5637 5631 5623 5614 5608 5602 5595 5587 5580 5574 5565 5558 5551 5543 5533 5523 5513 5504 5495
5843 5843 5842 5842 5842 5842 5841 5841 5840 5840 5839 5839 5839 5839 5838 5837 5837 5836 5835 5833 5832 5830 5829 5827 5825 5823 5822 5820 5818 5815 5813 5810 5807 5804 5801 5799 5796 5792 5790 5786 5783 5779 5776 5772 5768 5764 5760 5755 5750 5746 5740 5736 5731 5725 5720 5714 5708 5701 5696 5689 5683 5676 5669 5663 5656 5648 5642 5636 5629 5623 5616 5609 5603 5598 5591 5583 5575 5567 5559 5553 5548 5537 5525 5517 5509 5500 5491
5845 5844 5844 5844 5844 5843 5843 5842 5842 5841 5840 5840 5840 5840 5839 5838 5837 5836 5835 5834 5832 5830 5829 5827 5825 5823 5822 5820 5817 5815 5813 5810 5807 5804 5801 5798 5795 5792 5789 5786 5782 5779 5775 5771 5767 5762 5759 5755 5750 5745 5740 5735 5730 5725 5718 5712 5705 5698 5692 5686 5679 5672 5666 5659 5653 5645 5638 5631 5624 5615 5608 5602 5598 5592 5585 5576 5568 5559 5548 5544 5543 5533 5518 5507 5500 5491 5481
5846 5846 5846 5845 5845 5845 5844 5844 5843 5842 5842 5841 5841 5840 5839 5838 5837 5836 5835 5834 5832 5830 5829 5827 5825 5823 5821 5820 5817 5815 5812 5809 5806 5803 5800 5797 5794 5791 5788 5785 5781 5778 5774 5769 5765 5761 5757 5753 5749 5744 5739 5734 5729 5723 5717 5710 5703 5696 5689 5683 5676 5669 5662 5655 5648 5641 5633 5626 5621 5615 5607 5599 5591 5583 5576 5567 5560 5552 5539 5530 5527 5522 5510 5498 5488 5479 5471
5848 5847 5847 5847 5846 5846 5845 5845 5844 5843 5843 5842 5842 5841 5840 5839 5838 5836 5835 5834 5832 5831 5829 5827 5825 5823 5821 5819 5817 5814 5812 5809 5806 5803 5800 5797 5794 5790 5787 5784 5780 5776 5772 5768 5764 5759 5755 5750 5746 5741 5735 5730 5724 5719 5713 5707 5701 5694 5686 5679 5672 5665 5657 5650 5642 5636 5628 5620 5614 5608 5601 5593 5585 5576 5569 5561 5553 5547 5537 5525 5518 5512 5502 5492 5482 5474 5467
5849 5848 5848 5847 5847 5847 5846 5845 5845 5844 5843 5843 5842 5841 5840 5839 5838 5836 5835 5834 5832 5830 5828 5826 5825 5823 5821 5819 5816 5814 5811 5808 5805 5802 5799 5796 5793 5790 5786 5783 5779 5775 5771 5767 5763 5758 5753 5748 5743 5737 5732 5726 5720 5715 5709 5703 5697 5691 5684 5677 5669 5662 5655 5648 5641 5633 5625 5617 5608 5600 5592 5585 5579 5571 5564 5556 5548 5540 5532 5523 5516 5509 5498 5488 5480 5471 5462
5849 5849 5848 5848 5848 5847 5846 5846 5845 5844 5844 5843 5842 5841 5840 5839 5838 5836 5835 5833 5832 5830 5828 5826 5825 5823 5821 5818 5816 5813 5810 5807 5804 5801 5798 5795 5792 5789 5785 5782 5778 5774 5770 5765 5761 5757 5751 5746 5741 5736 5730 5724 5717 5712 5706 5699 5692 5686 5680 5673 5666 5659 5652 5645 5638 5630 5622 5614 5607 5599 5590 5581 5573 5568 5562 5555 5547 5538 5527 5516 5510 5504 5495 5484 5473 5464 5454
5850 5849 5849 5849 5848 5847 5847 5846 5845 5845 5844 5843 5842 5841 5840 5839 5837 5836 5835 5833 5832 5830 5828 5826 5824 5822 5820 5818 5815 5812 5809 5806 5803 5800 5797 5794 5791 5788 5784 5781 5777 5773 5769 5764 5759 5755 5750 5744 5739 5734 5728 5723 5716 5709 5703 5697 5689 5682 5676 5670 5662 5655 5648 5641 5634 5627 5620 5611 5603 5596 5589 5581 5571 5563 5555 5548 5542 5536 5527 5515 5504 5495 5487 5478 5468 5459 5449
5850 5850 5849 5849 5848 5848 5847 5846 5845 5845 5844 5843 5842 5841 5840 5839 5837 5836 5835 5833 5832 5830 5828 5826 5824 5822 5820 5817 5815 5812 5809 5805 5802 5799 5796 5793 5790 5787 5783 5780 5776 5772 5767 5763 5758 5753 5748 5743 5737 5732 5726 5721 5715 5708 5701 5694 5687 5679 5673 5666 5659 5651 5645 5638 5629 5622 5614 5606 5598 5592 5586 5578 5569 5559 5551 5544 5537 5530 5523 5514 5503 5491 5481 5473 5463 5453 5442
5850 5850 5849 5849 5848 5848 5847 5846 5845 5845 5844 5843 5842 5841 5840 5838 5837 5835 5834 5833 5831 5829 5827 5825 5824 5821 5819 5817 5814 5811 5808 5805 5802 5799 5795 5792 5789 5786 5782 5778 5774 5770 5765 5761 5756 5751 5746 5741 5736 5730 5724 5718 5712 5707 5700 5693 5686 5678 5670 5663 5656 5647 5640 5634 5625 5618 5610 5602 5593 5585 5577 5569 5562 5555 5548 5540 5530 5520 5511 5503 5495 5486 5475 5465 5456 5446 5436
5850 5850 5849 5849 5848 5848 5847 5846 5845 5845 5844 5843 5842 5840 5839 5838 5837 5836 5834 5832 5830 5829 5827 5825 5823 5821 5818 5816 5813 5810 5807 5804 5801 5798 5794 5791 5788 5784 5780 5776 5772 5768 5763 5759 5754 5749 5744 5739 5734 5728 5722 5716 5710 5704 5698 5692 5685 5677 5669 5662 5654 5645 5637 5631 5623 5615 5608 5600 5592 5585 5578 5570 5562 5554 5545 5537 5528 5518 5506 5496 5488 5480 5469 5459 5450 5441 5431
5850 5850 5849 5849 5848 5847 5847 5846 5845 5844 5843 5842 5841 5840 5839 5838 5836 5835 5833 5832 5830 5828 5826 5824 5822 5820 5818 5815 5812 5809 5806 5803 5800 5797 5794 5790 5787 5783 5779 5775 5771 5766 5762 5757 5752 5747 5742 5737 5732 5727 5721 5715 5709 5702 5695 5688 5682 5676 5668 5660 5653 5645 5636 5629 5622 5615 5607 5599 5591 5585 5579 5570 5561 5552 5544 5535 5527 5519 5509 5498 5487 5476 5464 5453 5443 5435 5425
5850 5849 5849 5848 5848 5847 5846 5846 5845 5844 5843 5842 5840 5839 5838 5837 5836 5834 5833 5831 5830 5828 5826 5824 5822 5820 5817 5814 5811 5808 5805 5802 5799 5796 5793 5790 5786 5782 5778 5774 5769 5765 5760 5755 5750 5745 5740 5735 5730 5724 5719 5712 5706 5700 5694 5687 5679 5673 5665 5657 5651 5644 5635 5627 5620 5614 5607 5600 5590 5582 5576 5569 5560 5552 5542 5532 5523 5515 5506 5495 5483 5472 5461 5449 5438 5429 5420
5849 5849 5848 5848 5847 5847 5846 5845 5844 5843 5842 5841 5840 5838 5837 5836 5835 5834 5832 5831 5829 5827 5825 5823 5821 5819 5816 5813 5810 5807 5804 5801 5798 5795 5792 5788 5785 5781 5777 5773 5768 5764 5759 5754 5749 5744 5739 5733 5728 5723 5716 5710 5704 5697 5690 5683 5676 5669 5662 5655 5648 5641 5633 5625 5618 5610 5603 5597 5588 5579 5571 5563 5554 5546 5539 5531 5521 5512 5501 5489 5478 5468 5457 5446 5435 5425 5415
5849 5848 5848 5847 5847 5846 5845 5844 5844 5843 5841 5840 5839 5838 5837 5836 5834 5833 5831 5830 5828 5826 5824 5823 5820 5818 5815 5812 5809 5806 5803 5800 5797 5794 5791 5787 5784 5780 5776 5772 5767 5763 5758 5753 5748 5743 5738 5733 5727 5721 5715 5709 5702 5695 5687 5680 5673 5666 5659 5652 5644 5637 5629 5621 5614 5607 5598 5592 5586 5579 5572 5564 5552 5542 5534 5525 5516 5507 5498 5487 5475 5464 5454 5445 5434 5423 5411
5848 5847 5847 5846 5846 5845 5845 5844 5843 5842 5840 5839 5838 5837 5836 5835 5833 5832 5831 5829 5827 5826 5824 5822 5819 5817 5814 5811 5808 5805 5802 5799 5796 5793 5790 5786 5782 5779 5775 5770 5766 5762 5757 5752 5747 5742 5737 5731 5726 5720 5714 5707 5701 5693 5686 5678 5670 5663 5655 5648 5641 5635 5627 5618 5610 5603 5595 5588 5581 5574 5568 5563 5554 5542 5531 5521 5511 5502 5493 5482 5471 5460 5449 5439 5429 5418 5407
5847 5847 5846 5846 5845 5844 5844 5843 5842 5841 5839 5838 5837 5836 5835 5834 5832 5831 5830 5828 5827 5825 5823 5821 5818 5816 5813 5810 5807 5804 5801 5798 5795 5792 5788 5785 5781 5777 5774 5769 5765 5761 5756 5751 5746 5741 5736 5731 5725 5719 5713 5706 5699 5692 5685 5677 5670 5662 5655 5648 5641 5633 5625 5616 5606 5597 5588 5580 5571 5562 5553 5548 5544 5535 5526 5517 5507 5497 5487 5477 5466 5454 5442 5430 5419 5410 5401
5846 5845 5845 5844 5844 5843 5842 5841 5841 5840 5839 5838 5837 5835 5834 5833 5832 5830 5829 5827 5826 5824 5822 5819 5817 5814 5812 5809 5806 5803 5800 5797 5794 5790 5787 5783 5780 5776 5772 5769 5764 5760 5755 5750 5746 5741 5735 5730 5725 5719 5712 5706 5699 5692 5685 5677 5670 5663 5654 5647 5638 5629 5621 5612 5603 5593 5584 5576 5569 5561 5551 5542 5536 5529 5521 5513 5503 5494 5484 5472 5459 5446 5435 5423 5412 5401 5391
5845 5844 5843 5843 5842 5842 5841 5840 5839 5839 5838 5837 5836 5834 5833 5832 5831 5829 5828 5826 5825 5823 5820 5818 5816 5813 5810 5807 5804 5802 5799 5796 5792 5789 5785 5782 5778 5775 5771 5768 5763 5759 5754 5749 5744 5739 5734 5729 5723 5717 5711 5705 5698 5691 5684 5676 5668 5660 5652 5643 5634 5626 5618 5609 5601 5593 5586 5577 5569 5560 5551 5542 5534 5526 5517 5508 5498 5489 5478 5466 5453 5441 5431 5420 5408 5397 5386
5842 5842 5841 5841 5841 5840 5839 5838 5838 5837 5836 5836 5834 5833 5832 5831 5830 5828 5827 5825 5823 5821 5819 5817 5815 5812 5809 5806 5803 5800 5798 5794 5791 5788 5784 5781 5777 5774 5770 5767 5762 5758 5753 5748 5743 5738 5733 5728 5722 5715 5709 5703 5696 5689 5682 5674 5666 5658 5650 5642 5634 5626 5618 5609 5599 5590 5583 5575 5567 5558 5549 5540 5534 5527 5517 5507 5495 5484 5474 5463 5451 5440 5428 5416 5404 5392 5382
5840 5840 5839 5839 5839 5838 5838 5837 5837 5836 5835 5834 5834 5832 5831 5830 5828 5827 5826 5824 5822 5820 5818 5816 5813 5811 5808 5805 5802 5799 5796 5793 5790 5786 5783 5780 5776 5773 5769 5765 5761 5756 5751 5747 5742 5737 5732 5726 5721 5714 5708 5701 5694 5686 5679 5672 5665 5657 5649 5641 5632 5624 5615 5607 5598 5589 5580 5573 5568 5562 5553 5542 5533 5525 5517 5507 5495 5483 5472 5461 5449 5437 5424 5413 5400 5389 5379
5837 5837 5837 5837 5837 5837 5837 5836 5835 5835 5834 5833 5832 5831 5830 5829 5827 5826 5825 5823 5821 5819 5817 5814 5812 5809 5806 5804 5801 5797 5794 5791 5788 5785 5782 5779 5775 5772 5768 5764 5760 5755 5750 5745 5741 5736 5731 5725 5719 5713 5707 5700 5692 5685 5677 5670 5663 5655 5647 5639 5630 5621 5613 5606 5598 5589 5579 5570 5562 5557 5551 5541 5530 5520 5511 5500 5490 5479 5468 5457 5445 5433 5420 5409 5398 5387 5376
5835 5835 5835 5836 5836 5835 5835 5834 5834 5833 5833 5832 5831 5830 5828 5827 5826 5825 5823 5822 5820 5818 5815 5813 5810 5807 5805 5802 5799 5796 5793 5790 5787 5784 5781 5778 5774 5770 5766 5762 5758 5754 5749 5744 5739 5734 5729 5723 5717 5711 5705 5698 5691 5683 5676 5668 5660 5652 5644 5636 5628 5619 5611 5602 5595 5586 5577 5567 5556 5547 5539 5531 5523 5514 5506 5497 5488 5477 5465 5452 5440 5428 5416 5404 5393 5382 5372
5833 5834 5834 5834 5834 5834 5833 5833 5832 5832 5831 5830 5829 5828 5827 5826 5825 5823 5822 5820 5818 5816 5814 5811 5809 5806 5803 5800 5797 5794 5791 5789 5786 5783 5780 5777 5773 5769 5765 5761 5757 5753 5748 5743 5738 5733 5727 5722 5716 5710 5704 5697 5690 5682 5674 5666 5658 5650 5642 5634 5626 5618 5610 5602 5594 5585 5576 5567 5557 5547 5537 5528 5521 5513 5504 5494 5483 5472 5460 5447 5433 5421 5410 5399 5389 5378 5368
5832 5833 5833 5833 5833 5832 5832 5832 5831 5830 5829 5829 5828 5827 5825 5824 5823 5822 5820 5819 5817 5815 5813 5810 5808 5805 5802 5799 5796 5793 5790 5787 5784 5781 5778 5775 5772 5768 5764 5759 5755 5751 5746 5742 5737 5731 5725 5719 5714 5708 5702 5695 5688 5680 5672 5663 5655 5647 5640 5632 5624 5616 5608 5601 5593 5584 5575 5565 5556 5547 5537 5526 5517 5507 5497 5486 5476 5465 5455 5443 5430 5417 5406 5396 5385 5375 5365
5832 5832 5832 5831 5831 5831 5831 5830 5830 5829 5828 5827 5826 5825 5824 5823 5822 5821 5819 5817 5815 5813 5811 5809 5806 5803 5800 5798 5794 5791 5789 5786 5783 5780 5777 5773 5770 5766 5762 5758 5754 5749 5745 5740 5734 5729 5723 5717 5712 5706 5699 5692 5685 5677 5669 5660 5652 5644 5636 5628 5620 5612 5603 5596 5588 5581 5572 5563 5554 5546 5537 5527 5517 5507 5498 5487 5475 5463 5452 5440 5427 5414 5402 5390 5379 5370 5360
5831 5831 5830 5830 5830 5829 5829 5829 5828 5827 5826 5825 5824 5824 5823 5822 5821 5819 5817 5816 5814 5811 5809 5807 5804 5801 5798 5795 5793 5790 5787 5785 5782 5779 5775 5772 5768 5765 5761 5757 5752 5748 5743 5738 5732 5726 5721 5716 5710 5703 5697 5690 5682 5674 5666 5657 5649 5641 5633 5625 5618 5609 5601 5592 5584 5577 5570 5563 5555 5547 5539 5529 5518 5508 5498 5487 5473 5459 5447 5435 5421 5408 5395 5384 5373 5364 5355
5830 5830 5829 5829 5828 5828 5827 5827 5826 5825 5825 5824 5823 5822 5821 5820 5819 5817 5816 5814 5812 5810 5807 5805 5802 5799 5796 5794 5792 5789 5786 5783 5780 5777 5774 5770 5767 5763 5759 5755 5750 5746 5741 5736 5731 5725 5719 5714 5708 5701 5695 5688 5680 5672 5664 5656 5647 5639 5631 5622 5614 5605 5596 5587 5577 5569 5560 5552 5544 5536 5527 5517 5508 5499 5489 5480 5467 5453 5440 5429 5418 5405 5393 5381 5370 5361 5352
5828 5828 5828 5827 5827 5826 5826 5825 5824 5824 5823 5822 5821 5821 5820 5819 5817 5816 5814 5812 5810 5808 5806 5803 5801 5798 5795 5793 5790 5788 5785 5782 5779 5776 5772 5769 5765 5761 5757 5753 5748 5744 5740 5735 5729 5723 5718 5712 5706 5700 5693 5685 5678 5670 5662 5654 5645 5636 5628 5619 5610 5601 5592 5582 5573 5562 5552 5541 5532 5523 5514 5505 5496 5487 5478 5470 5461 5450 5438 5426 5415 5403 5392 5380 5369 5358 5349
5826 5826 5826 5825 5825 5824 5824 5823 5823 5822 5821 5821 5820 5819 5818 5817 5816 5814 5812 5811 5809 5807 5804 5802 5799 5797 5794 5792 5789 5786 5783 5780 5777 5773 5770 5767 5763 5759 5755 5751 5746 5742 5738 5733 5727 5721 5715 5710 5704 5698 5690 5683 5675 5668 5659 5651 5642 5633 5625 5616 5607 5598 5589 5579 5570 5561 5551 5542 5532 5523 5514 5504 5494 5484 5475 5465 5456 5446 5435 5424 5412 5399 5388 5378 5367 5356 5346
5825 5824 5824 5823 5823 5823 5822 5822 5821 5821 5820 5819 5818 5818 5817 5815 5814 5812 5811 5809 5807 5805 5803 5800 5798 5795 5793 5790 5787 5784 5781 5779 5775 5772 5768 5765 5761 5757 5753 5749 5745 5740 5735 5730 5725 5719 5713 5707 5702 5695 5688 5680 5672 5665 5657 5649 5640 5632 5624 5615 5606 5597 5588 5579 5569 5559 5550 5542 5533 5523 5514 5504 5495 5485 5474 5464 5453 5442 5431 5420 5410 5398 5386 5375 5365 5354 5345
5823 5822 5822 5822 5821 5821 5820 5820 5819 5819 5818 5817 5817 5816 5815 5814 5812 5811 5809 5807 5805 5803 5801 5799 5796 5794 5791 5788 5785 5782 5779 5776 5773 5770 5766 5763 5759 5755 5751 5747 5742 5738 5733 5728 5723 5717 5711 5705 5699 5693 5686 5678 5670 5663 5655 5647 5638 5630 5622 5614 5605 5595 5586 5577 5568 5558 5548 5539 5530 5521 5512 5503 5493 5482 5472 5463 5454 5443 5431 5419 5408 5397 5385 5374 5364 5353 5344
5821 5820 5820 5820 5819 5819 5819 5818 5818 5817 5817 5816 5815 5814 5813 5812 5810 5809 5807 5806 5804 5801 5799 5797 5794 5792 5789 5786 5783 5780 5777 5774 5771 5767 5764 5760 5757 5753 5749 5745 5740 5736 5731 5726 5721 5715 5709 5703 5697 5691 5684 5676 5668 5660 5653 5645 5637 5628 5620 5611 5603 5594 5584 5575 5566 5557 5547 5538 5529 5520 5511 5502 5493 5482 5471 5461 5453 5444 5433 5421 5408 5397 5385 5374 5363 5352 5342
5819 5818 5818 5818 5818 5817 5817 5817 5816 5816 5815 5814 5813 5812 5811 5810 5809 5807 5805 5804 5802 5799 5797 5795 5792 5790 5787 5784 5781 5777 5774 5771 5768 5765 5762 5758 5755 5751 5747 5742 5738 5734 5729 5724 5719 5713 5707 5701 5695 5688 5681 5674 5666 5659 5651 5643 5635 5627 5619 5610 5601 5592 5583 5575 5566 5558 5549 5539 5529 5520 5511 5501 5492 5482 5472 5461 5450 5440 5430 5419 5409 5397 5386 5375 5363 5352 5341
5817 5817 5816 5816 5816 5816 5815 5815 5814 5814 5813 5812 5812 5811 5809 5808 5807 5805 5803 5802 5799 5797 5795 5793 5790 5787 5784 5781 5778 5775 5772 5769 5766 5763 5759 5756 5752 5749 5744 5740 5736 5732 5727 5722 5717 5711 5705 5699 5692 5686 5679 5672 5665 5657 5650 5642 5633 5625 5617 5609 5600 5592 5583 5574 5565 5556 5547 5537 5527 5518 5508 5498 5489 5480 5470 5460 5449 5437 5426 5415 5405 5395 5383 5373 5362 5352 5341
5816 5815 5815 5814 5814 5814 5813 5813 5812 5812 5811 5810 5810 5809 5808 5806 5805 5803 5801 5800 5797 5795 5793 5791 5788 5785 5782 5779 5776 5773 5769 5766 5764 5761 5757 5754 5750 5746 5742 5738 5734 5729 5724 5720 5714 5708 5702 5696 5690 5684 5677 5670 5662 5655 5647 5639 5631 5623 5615 5607 5599 5590 5581 5572 5563 5554 5545 5535 5526 5517 5507 5497 5487 5478 5468 5458 5448 5437 5425 5413 5402 5391 5379 5368 5358 5349 5339
5814 5813 5813 5812 5812 5812 5811 5811 5810 5810 5809 5808 5807 5807 5805 5804 5803 5801 5799 5797 5795 5793 5791 5789 5786 5783 5780 5777 5774 5771 5767 5764 5761 5758 5755 5752 5748 5744 5740 5736 5731 5727 5722 5717 5712 5706 5700 5694 5688 5682 5675 5668 5660 5652 5645 5637 5629 5620 5612 5604 5596 5588 5579 5570 5562 5553 5544 5535 5526 5517 5507 5497 5487 5477 5467 5456 5446 5435 5424 5412 5401 5390 5378 5368 5357 5348 5340
5812 5811 5811 5810 5810 5810 5809 5809 5808 5807 5807 5806 5805 5805 5804 5802 5801 5799 5797 5795 5793 5791 5789 5786 5784 5781 5778 5775 5772 5769 5765 5762 5759 5756 5753 5749 5745 5741 5737 5733 5729 5724 5719 5714 5709 5704 5698 5691 5685 5679 5672 5665 5658 5650 5642 5634 5627 5619 5611 5603 5595 5586 5577 5569 5560 5551 5542 5533 5524 5515 5506 5497 5487 5477 5466 5456 5445 5434 5424 5412 5400 5388 5378 5369 5359 5349 5340
5810 5809 5809 5808 5808 5807 5807 5807 5806 5805 5805 5804 5803 5802 5801 5800 5798 5796 5795 5793 5791 5789 5787 5784 5782 5779 5776 5773 5770 5767 5763 5760 5756 5753 5750 5746 5743 5739 5734 5730 5726 5722 5717 5712 5707 5701 5695 5689 5682 5676 5669 5662 5655 5647 5639 5631 5624 5616 5608 5600 5592 5584 5575 5566 5557 5548 5539 5530 5521 5512 5503 5494 5486 5477 5468 5457 5445 5432 5420 5408 5396 5386 5377 5367 5358 5348 5339
5808 5807 5807 5806 5806 5805 5805 5805 5804 5804 5803 5802 5801 5800 5799 5798 5796 5794 5792 5790 5788 5786 5784 5782 5780 5777 5774 5771 5767 5764 5761 5758 5754 5750 5747 5744 5740 5736 5732 5728 5723 5718 5714 5709 5704 5698 5692 5686 5680 5673 5667 5659 5652 5644 5637 5629 5621 5614 5606 5598 5589 5581 5572 5564 5555 5546 5537 5527 5519 5510 5501 5492 5483 5475 5466 5455 5443 5430 5418 5407 5397 5388 5378 5369 5359 5349 5339
5806 5806 5805 5804 5804 5803 5803 5803 5802 5801 5801 5800 5799 5798 5796 5795 5793 5791 5789 5787 5785 5784 5781 5779 5777 5774 5771 5768 5765 5761 5758 5755 5751 5748 5745 5741 5738 5734 5730 5725 5720 5715 5711 5706 5701 5695 5689 5683 5677 5671 5664 5657 5650 5642 5634 5626 5619 5611 5603 5595 5587 5578 5570 5562 5553 5544 5535 5526 5517 5508 5498 5490 5481 5472 5463 5454 5444 5435 5425 5414 5403 5392 5381 5370 5360 5349 5339
5804 5804 5803 5802 5802 5801 5801 5800 5800 5799 5798 5797 5796 5795 5794 5792 5791 5789 5787 5785 5783 5781 5779 5776 5774 5771 5768 5765 5761 5758 5755 5752 5749 5746 5742 5739 5735 5731 5727 5723 5718 5713 5708 5703 5698 5693 5687 5680 5674 5668 5662 5655 5647 5640 5632 5624 5616 5608 5600 5592 5585 5577 5569 5560 5552 5543 5534 5525 5516 5507 5498 5489 5480 5471 5463 5454 5446 5438 5428 5417 5404 5392 5380 5368 5358 5347 5338